TimePST,TemperatureF,Dew PointF,Humidity,Sea Level PressureIn,VisibilityMPH,Wind Direction,Wind SpeedMPH,Gust SpeedMPH,PrecipitationIn,Events,Conditions,WindDirDegrees,DateUTC
12:53 AM,37.0,32.0,82,30.03,10.0,Calm,Calm,-,N/A,,Overcast,0,2012-11-16 08:53:00
1:53 AM,37.9,30.9,76,30.02,10.0,Calm,Calm,-,N/A,,Overcast,0,2012-11-16 09:53:00
2:53 AM,37.0,32.0,82,30.01,10.0,Calm,Calm,-,N/A,,Mostly Cloudy,0,2012-11-16 10:53:00
3:53 AM,37.0,32.0,82,30.01,10.0,Calm,Calm,-,N/A,,Scattered Clouds,0,2012-11-16 11:53:00
4:53 AM,36.0,32.0,86,30.01,10.0,Calm,Calm,-,N/A,,Partly Cloudy,0,2012-11-16 12:53:00
5:53 AM,34.0,30.9,89,30.00,10.0,Calm,Calm,-,N/A,,Clear,0,2012-11-16 13:53:00
6:53 AM,34.0,30.9,89,30.00,10.0,Calm,Calm,-,N/A,,Clear,0,2012-11-16 14:53:00
7:53 AM,36.0,32.0,86,30.01,10.0,Calm,Calm,-,N/A,,Mostly Cloudy,0,2012-11-16 15:53:00
8:53 AM,37.0,33.1,86,30.02,10.0,Calm,Calm,-,N/A,,Mostly Cloudy,0,2012-11-16 16:53:00
9:45 AM,39.2,33.8,81,29.99,10.0,Calm,Calm,-,N/A,,Mostly Cloudy,0,2012-11-16 17:45:00
9:53 AM,41.0,34.0,76,30.02,10.0,North,3.5,-,N/A,,Mostly Cloudy,360,2012-11-16 17:53:00
10:53 AM,42.1,34.0,73,30.01,10.0,Variable,3.5,-,N/A,,Scattered Clouds,0,2012-11-16 18:53:00
11:53 AM,44.1,35.1,71,29.99,10.0,North,3.5,-,N/A,,Scattered Clouds,360,2012-11-16 19:53:00
12:53 PM,46.9,35.1,63,29.98,10.0,Calm,Calm,-,N/A,,Scattered Clouds,0,2012-11-16 20:53:00
1:53 PM,48.0,36.0,63,29.96,10.0,Calm,Calm,-,N/A,,Scattered Clouds,0,2012-11-16 21:53:00
2:53 PM,48.0,36.0,63,29.96,10.0,Calm,Calm,-,N/A,,Mostly Cloudy,0,2012-11-16 22:53:00
3:53 PM,45.0,36.0,71,29.97,10.0,North,4.6,-,N/A,,Overcast,10,2012-11-16 23:53:00
4:53 PM,43.0,35.1,74,29.97,10.0,Calm,Calm,-,N/A,,Clear,0,2012-11-17 00:53:00
5:53 PM,41.0,36.0,82,29.98,10.0,NNE,3.5,-,N/A,,Mostly Cloudy,30,2012-11-17 01:53:00
6:53 PM,37.9,35.1,89,29.98,10.0,Calm,Calm,-,N/A,,Clear,0,2012-11-17 02:53:00
7:53 PM,37.9,34.0,86,29.97,10.0,Calm,Calm,-,N/A,,Clear,0,2012-11-17 03:53:00
8:53 PM,37.0,34.0,89,29.97,8.0,Calm,Calm,-,N/A,,Clear,0,2012-11-17 04:53:00
9:53 PM,37.0,34.0,89,29.96,4.0,Calm,Calm,-,N/A,,Clear,0,2012-11-17 05:53:00
10:53 PM,37.0,34.0,89,29.96,8.0,SW,3.5,-,N/A,,Partly Cloudy,230,2012-11-17 06:53:00
11:50 PM,37.4,33.8,87,29.93,4.0,Calm,Calm,-,N/A,,Overcast,0,2012-11-17 07:50:00
11:53 PM,37.0,33.1,86,29.96,4.0,Calm,Calm,-,N/A,,Overcast,0,2012-11-17 07:53:00